Other Public Products
Issued by NWS Grand Forks, ND

Home | Current Version | Previous Version | Graphics & Text | Print | Product List | Glossary On
Versions: 1 2 3 4 5 6 7 8 9 10 11 12 13 14 15 16 17 18 19 20 21 22 23 24 25 26 27 28 29 30 31 32 33 34 35 36 37 38 39 40 41 42 43 44 45 46 47 48 49 50
413
FPUS83 KFGF 232110
OPUFGF
PRAIRIE TO PINES WEATHER ROUNDUP
NATIONAL WEATHER SERVICE EASTERN NORTH DAKOTA/GRAND FORKS ND
400 PM CDT FRI JUN 23 2017

 **SATELLITE DATA USED TO AUGMENT SKY COVER AT AUTOMATED STATIONS**
 *****  WEATHER ACROSS EASTERN NORTH DAKOTA  *****

CITY           SKY/WX    TMP DP  RH WIND       PRES   REMARKS
GRAND FORKS    PTSUNNY   65  43  44 NW21G29   29.89S
GRAND FORKS AF PTSUNNY   64  41  42 NW18G26   29.90S
GRAND CITY NWS NOT AVBL
BUXTON         NOT AVBL
DEVILS LAKE    CLOUDY    61  40  45 NW23G30   29.96R
FARGO          CLOUDY    65  46  50 NW16G28   29.91S
WAHPETON ARPT  CLOUDY    63  43  48 NW14G23   29.93S
$$

 *****  WEATHER ACROSS CENTRAL AND WESTERN NORTH DAKOTA  *****

CITY           SKY/WX    TMP DP  RH WIND       PRES   REMARKS
JAMESTOWN      PTSUNNY   65  39  38 NW24G35   29.97R
BISMARCK       PTSUNNY   67  36  31 NW28G35   30.05S
MINOT          PTSUNNY   62  37  39 NW25G37   30.04S
MINOT AFB      CLOUDY    61  36  39 NW26G37   30.03R
GARRISON         N/A     63  36  36 NW28G41   30.05R
WILLISTON      PTSUNNY   68  32  26 NW15G29   30.12S
DICKINSON      PTSUNNY   63  29  27 NW25G36   30.10S
HETTINGER      FAIR      66  29  24 NW28G36   30.13F
$$

 *****  OTHER OBSERVATIONS NORTHEAST NORTH DAKOTA  *****

CITY           SKY/WX    TMP DP  RH WIND       PRES   REMARKS
WALHALLA       NOT AVBL
LANGDON        CLOUDY    59  43  55 NW23G35   29.94R
CAVALIER         N/A     63  43  48 W18G25    29.89S
GRAFTON        MOCLDY    64  43  45 NW18G28   29.91S
CANDO          NOT AVBL
FORT TOTTEN      N/A     60  42  51 NW10      29.95S
ROLLA            N/A     54  39  58 NW23G30   29.98S
RUGBY          NOT AVBL
 ***** THE ABOVE OBSERVATIONS ARE NON NWS ARE NOT QUALITY
        CONTROLLED AND MAY MIS-REPORT RAIN FOR SNOW...
$$

 *****  OTHER OBSERVATIONS SOUTHEAST NORTH DAKOTA *****

CITY           SKY/WX    TMP DP  RH WIND       PRES   REMARKS
COOPERSTOWN    MOCLDY    63  41  45 NW23G33   29.95R
VALLEY CITY    MOCLDY    63  39  42 NW22G30   29.97S
OAKES          NOT AVBL
GWINNER        MOCLDY    64  41  42 NW17G24   29.96S
SHEYENNE NWR     N/A     66  44  44 NW14      29.95S
BUFFALO        NOT AVBL
WYNDMERE       NOT AVBL
 ***** THE ABOVE OBSERVATIONS ARE NON NWS ARE NOT QUALITY
       CONTROLLED AND MAY MIS-REPORT RAIN FOR SNOW...
$$

  *****  WEATHER ACROSS NORTHERN MINNESOTA  *****

CITY           SKY/WX    TMP DP  RH WIND       PRES   REMARKS
FLAG ISLAND    CLOUDY    57  52  82 W20G25    29.79R
WARROAD        CLOUDY    57  52  82 NW14G23   29.84R
ROSEAU           N/A     57  52  82 NW17G23   29.85R
HALLOCK        CLOUDY    61  48  63 NW14G20   29.89S
THF RVR FALLS  CLOUDY    58  49  72 NW16G24   29.90R
HALSTAD        NOT AVBL
FOSSTON        PTSUNNY   61  50  67 NW10      29.89S
BAUDETTE       CLOUDY    59  55  87 NW16G23   29.80R
WASKISH        CLOUDY    61  54  77 NW15G21   29.81S
CROOKSTON      CLOUDY    61  46  59 N14       29.90S
$$
  *****  WEATHER ACROSS CENTRAL AND WEST MINNESOTA  *****

CITY           SKY/WX    TMP DP  RH WIND       PRES   REMARKS
BEMIDJI        CLOUDY    61  50  65 W22       29.85R
PARK RAPIDS    CLOUDY    63  50  62 NW25      29.85R
WADENA         FAIR      63  52  67 NW22G30   29.87R
DETROIT LAKES  PTSUNNY   61  50  67 NW16G22   29.91S
MOORHEAD       CLOUDY    63  46  55 NW15G21   29.92S
FERGUS FALLS   CLOUDY    63  50  63 NW18G28   29.89S
ELBOW LAKE     CLOUDY    62  51  66 W23G31    29.92S
MORRIS MN      PTSUNNY   66  50  55 NW20G28   29.90F
STAPLES        PTSUNNY   64  48  55 W18G24    29.85S
WHEATON        CLOUDY    64  46  52 NW16G23   29.95S
$$
  *****  WEATHER ELSEWHERE ACROSS MINNESOTA  *****

CITY           SKY/WX    TMP DP  RH WIND       PRES   REMARKS
DULUTH         FAIR      69  50  50 W15G23    29.72R
INTRNTL FALLS  CLOUDY    61  51  70 W17G28    29.74R
ELY            FAIR      66  45  45 NW13G23   29.70R
CLOQUET        PTSUNNY   68  48  49 W16G23    29.74S
BRAINERD       PTSUNNY   65  54  67 NW12      29.82S
HIBBING        FAIR      63  50  62 NW18G26   29.74S
ALEXANDRIA     PTSUNNY   65  50  58 NW20G31   29.90S
SAINT CLOUD    CLOUDY    67  52  58 NW23G31   29.82S
MINNEAPOLIS    PTSUNNY   72  50  45 NW15G28   29.80S
$$

  *****  WEATHER ACROSS SOUTH DAKOTA  *****

CITY           SKY/WX    TMP DP  RH WIND       PRES   REMARKS
SIOUX FALLS    CLOUDY    66  51  58 NW21G26   29.99S
BROOKINGS      CLOUDY    62  48  60 NW17G24   29.99R
WATERTOWN      CLOUDY    61  47  59 NW17      29.98S
HURON          FAIR      69  39  33 NW25G35   30.01S
SISSETON         N/A     67  46  47 NW21G28   29.94R
ABERDEEN       FAIR      69  40  34 NW22G31   30.00R
MITCHELL       FAIR      73  42  32 NW21G28   30.02S
PIERRE         FAIR      70  35  27 NW24G33   30.07F
MOBRIDGE       FAIR      70  33  25 N22G32    30.03S
RAPID CITY     FAIR      69  33  26 N20G37    30.15S
$$

  *****  SOME WEATHER IN NEARBY STATES *****

CITY           SKY/WX    TMP DP  RH WIND       PRES   REMARKS
GLASGOW MT     FAIR      66  29  24 NW23G30   30.17F
GREAT FALLS MT FAIR      67  35  30 VRB3      30.25F
CHEYENNE WY    CLOUDY    62  40  44 SE9       30.26F
SCOTTSBLUFF NE FAIR      74  35  24 NW16G23   30.18F
OMAHA NE       PTSUNNY   76  52  43 N16G26    29.97F
DES MOINES IA  PTSUNNY   74  52  46 NW14G26   29.90S
DAVENPORT IA   FAIR      78  54  43 NW23G30   29.79R
CHICAGO IL     PTSUNNY   82  46  28 NW18      29.71R
EAU CLAIRE WI  PTSUNNY   72  51  47 NW17G24   29.74F
LA CROSSE WI   PTSUNNY   76  55  48 NW14      29.78R
$$

  *****  SOME NATIONAL WEATHER *****

CITY           SKY/WX    TMP DP  RH WIND       PRES   REMARKS
LA GUARDIA NY  PTSUNNY   85  72  65 SW13      29.65F HX  91
RALEIGH NC     PTSUNNY   90  71  53 SW18G25   29.89F HX  96
ATLANTA GA     FAIR      87  69  54 S20G30    29.93F HX  91
NEW ORLEANS LA LGT RAIN  86  78  77 S14       29.90F HX  98
OKLAHOMA CITY  PTSUNNY   90  67  46 NE14      29.90F HX  93
ALBUQUERQUE NM PTSUNNY   98  17   5 W13G20    30.04F HX  91
SALT LAKE CITY FAIR      83  33  16 N10       30.14F
LOS ANGELES CA CLOUDY    68  60  75 W15       29.92S
BOISE ID       FAIR      78  28  16 W8        30.16F
SEATTLE WA     FAIR      79  51  37 NW12      30.18F
$$

*** WEATHER ACROSS MANITOBA...SASKATCHEWAN AND ONTARIO ***
                ***ONTARIO***

CITY           SKY/WX    TMP DP  RH WIND       PRES   REMARKS
GERALDTON      PTSUNNY   59  50  72 N15       29.59R THUNDER
THUNDER BAY    PTSUNNY   68  52  56 W13G20    29.60R
SIOUX LOOKOUT  LGT RAIN  59  54  82 NW8       29.67R
TORONTO        PTSUNNY   77  68  73 W12       29.52F
BIG TROUT LK   PTSUNNY   57  54  88 W6        29.67
PICKLE LAKE    MOSUNNY   63  48  59 NE12      29.63R
DRYDEN         LGT RAIN  59  54  82 N6        29.68R
KENORA         LGT RAIN  59  55  88 NW8       29.76R
$$
                *** MANITOBA***

CITY           SKY/WX    TMP DP  RH WIND       PRES   REMARKS
BRANDON        CLOUDY    54  41  62 NW21G31   29.96S
DAUPHIN        CLOUDY    57  46  67 W13       29.92S
ISLAND LAKE    MOSUNNY   63  50  63 N12G24    29.78R
PILOT MOUND      N/A     54  41  62 NW21G28     N/A
THE PAS        CLOUDY    48  43  81 N13G18    29.97R
THOMPSON       PTSUNNY   57  37  47 NE12G18   29.93R
WINNIPEG       CLOUDY    57  46  67 NW23      29.88R
LYNN LAKE      CLOUDY    55  36  47 N12G21    30.03S
CHURCHILL      MOSUNNY   50  37  62 NE14      29.99S
GILLAM         PTSUNNY   57  39  51 NE17G29   29.91S
$$
                ***SASKATCHEWAN***

CITY           SKY/WX    TMP DP  RH WIND       PRES   REMARKS
ESTEVAN        PTSUNNY   61  37  41 NW23G36   30.08F
KINDERSLEY     PTSUNNY   63  39  42 NW13G21   30.14S
LLOYDMINSTER   PTSUNNY   66  37  34 W13G21    30.14R
PRINCE ALBERT  LGT RAIN  50  43  76 N6        30.13S
REGINA         PTSUNNY   57  36  44 NW18G33   30.09S
YORKTON        PTSUNNY   55  41  58 NW26G35   30.00S



USA.gov is the U.S. government's official web portal to all federal, state and local government web resources and services.